EW3845 Weather Reports


Display with metric or nautical units.
time (UTC)temp
F
wind
direction
speed
MPH
gust
MPH
rain 1hr
in
rain 24hr
in
rain mn
in
humidity
%
barometer
mb
20260510191505 60 35 0.0 0.0 0.00 0.00 0.00 71 1006.8
20260510190003 61 34 0.0 0.0 0.00 0.00 0.00 69 1006.9
20260510184502 62 21 0.0 0.0 0.00 0.00 0.00 68 1007.1
20260510183002 63 25 0.0 0.0 0.00 0.00 0.00 67 1007.1
20260510181600 64 15 0.0 0.0 0.00 0.00 0.00 66 1007.3
20260510180108 65 23 0.0 0.0 0.00 0.00 0.00 65 1007.4
20260510175557 65 17 0.0 0.0 0.00 0.00 0.00 65 1007.6
20260510175042 65 17 0.0 0.0 0.00 0.00 0.00 65 1007.6
20260510174657 65 16 0.0 0.0 0.00 0.00 0.00 65 1007.4
20260510174554 66 19 0.0 0.0 0.00 0.00 0.00 65 1007.6
20260510174041 66 19 0.0 0.0 0.00 0.00 0.00 64 1007.7
20260510173553 66 20 0.0 0.0 0.00 0.00 0.00 63 1007.7
20260510173141 66 22 0.0 0.0 0.00 0.00 0.00 64 1007.6
20260510173039 67 21 0.0 0.0 0.00 0.00 0.00 64 1007.7
20260510172611 67 27 0.0 0.0 0.00 0.00 0.00 63 1007.8
20260510172038 67 163 0.0 0.0 0.00 0.00 0.00 62 1007.8
20260510171651 66 20 0.0 0.0 0.00 0.00 0.00 62 1007.7
20260510171550 67 20 0.0 0.0 0.00 0.00 0.00 62 1007.9
20260510171054 67 25 0.0 0.0 0.00 0.00 0.00 62 1007.9
20260510170545 67 25 0.0 0.0 0.00 0.00 0.00 61 1007.9
20260510170154 67 17 0.0 0.0 0.00 0.00 0.00 60 1007.8
20260510170053 67 24 0.0 0.0 0.00 0.00 0.00 59 1007.9
20260510165543 67 11 0.0 0.0 0.00 0.00 0.00 58 1007.9
20260510165050 67 32 0.0 0.0 0.00 0.00 0.00 59 1007.9
20260510164622 68 21 0.0 0.0 0.00 0.00 0.00 58 1007.9
20260510164046 68 44 0.0 0.0 0.00 0.00 0.00 57 1007.9
20260510163618 68 25 0.0 0.0 0.00 0.00 0.00 60 1007.8
20260510163159 68 57 0.0 0.0 0.00 0.00 0.00 60 1007.7
20260510163043 68 39 0.0 0.0 0.00 0.00 0.00 59 1007.8
20260510162556 68 25 0.0 0.0 0.00 0.00 0.00 59 1007.9
20260510162042 68 24 0.0 0.0 0.00 0.00 0.00 58 1007.8
20260510161652 68 38 0.0 0.0 0.00 0.00 0.00 59 1007.8
20260510161552 68 30 0.0 0.0 0.00 0.00 0.00 60 1008.0
20260510161059 68 16 0.0 0.0 0.00 0.00 0.00 57 1008.1
20260510160548 68 28 0.0 0.0 0.00 0.00 0.00 58 1008.0
20260510160053 68 21 0.0 0.0 0.00 0.00 0.00 60 1008.1
20260510160007 68 19 0.0 0.0 0.00 0.00 0.00 59 1007.9
20260510155605 68 29 0.0 0.0 0.00 0.00 0.00 58 1008.2
20260510155051 69 19 0.0 0.0 0.00 0.00 0.00 58 1008.3
20260510154645 68 24 0.0 0.0 0.00 0.00 0.00 58 1008.2
20260510154544 69 14 0.0 0.0 0.00 0.00 0.00 57 1008.3
20260510154051 69 26 0.0 0.0 0.00 0.00 0.00 57 1008.4
20260510153548 69 23 0.0 0.0 0.00 0.00 0.00 56 1008.6
20260510153139 68 15 0.0 0.0 0.00 0.00 0.00 58 1008.6
20260510153037 69 47 0.0 0.0 0.00 0.00 0.00 56 1008.7
20260510152550 69 21 0.0 0.0 0.00 0.00 0.00 57 1008.8
20260510152054 69 24 0.0 0.0 0.00 0.00 0.00 58 1008.7
20260510151646 69 35 0.0 0.0 0.00 0.00 0.00 59 1008.6
20260510151546 69 35 0.0 0.0 0.00 0.00 0.00 58 1008.7
20260510151053 69 26 0.0 0.0 0.00 0.00 0.00 57 1008.8
20260510150543 69 21 0.0 0.0 0.00 0.00 0.00 58 1008.8
20260510150050 69 27 0.0 0.0 0.00 0.00 0.00 59 1008.9
20260510150007 69 26 0.0 0.0 0.00 0.00 0.00 58 1008.8
20260510145603 69 28 0.0 0.0 0.00 0.00 0.00 57 1009.0
20260510145048 69 46 0.0 0.0 0.00 0.00 0.00 57 1009.2
20260510144600 69 56 0.0 0.0 0.00 0.00 0.00 57 1009.4
20260510144508 69 13 0.0 0.0 0.00 0.00 0.00 57 1009.2
20260510144106 69 52 0.0 0.0 0.00 0.00 0.00 59 1009.5
20260510143617 69 42 0.0 0.0 0.00 0.00 0.00 58 1009.6
20260510143147 69 28 0.0 0.0 0.00 0.00 0.00 58 1009.5
20260510143043 69 24 0.0 0.0 0.00 0.00 0.00 59 1009.7
20260510142555 69 36 0.0 0.0 0.00 0.00 0.00 58 1009.7
20260510142043 69 9 0.0 0.0 0.00 0.00 0.00 58 1009.6
20260510141658 69 30 0.0 0.0 0.00 0.00 0.00 58 1009.6
20260510141556 70 30 0.0 0.0 0.00 0.00 0.00 58 1009.8
20260510141044 70 46 0.0 0.0 0.00 0.00 0.00 59 1009.8
20260510140554 70 42 0.0 0.0 0.00 0.00 0.00 56 1009.9
20260510140041 71 27 0.0 0.0 0.00 0.00 0.00 56 1009.9
20260510135553 71 41 0.0 0.0 0.00 0.00 0.00 56 1010.0
20260510135040 71 10 0.0 0.0 0.00 0.00 0.00 58 1010.0
20260510134613 71 49 0.0 0.0 0.00 0.00 0.00 59 1010.1
20260510134040 71 9 0.0 0.0 0.00 0.00 0.00 58 1010.1
20260510133553 71 65 0.0 0.0 0.00 0.00 0.00 58 1010.1
20260510133101 71 17 0.0 0.0 0.00 0.00 0.00 57 1010.2
20260510132552 71 16 0.0 0.0 0.00 0.00 0.00 56 1010.2
20260510132040 71 21 0.0 0.0 0.00 0.00 0.00 58 1010.3
20260510131657 71 13 0.0 0.0 0.00 0.00 0.00 57 1010.3
20260510131553 71 13 0.0 0.0 0.00 0.00 0.00 57 1010.5
20260510131037 71 131 0.0 0.0 0.00 0.00 0.00 56 1010.5
20260510130549 71 129 0.0 0.0 0.00 0.00 0.00 58 1010.5
20260510130157 70 172 0.0 0.0 0.00 0.00 0.00 58 1010.4
20260510130055 71 172 0.0 0.0 0.00 0.00 0.00 60 1010.7
20260510125547 70 23 0.0 0.0 0.00 0.00 0.00 58 1010.7
20260510125055 70 19 0.0 0.0 0.00 0.00 0.00 59 1010.7
20260510124649 70 150 0.0 0.0 0.00 0.00 0.00 58 1010.7
20260510124548 71 150 0.0 0.0 0.00 0.00 0.00 57 1010.8
20260510124055 70 16 0.0 0.0 0.00 0.00 0.00 60 1011.0
20260510123548 70 19 0.0 0.0 0.00 0.00 0.00 61 1011.0
20260510123156 69 50 0.0 0.0 0.00 0.00 0.00 61 1011.0
20260510123056 69 33 0.0 0.0 0.00 0.00 0.00 61 1011.2
20260510122549 69 33 0.0 0.0 0.00 0.00 0.00 60 1011.3
20260510122039 70 27 0.0 0.0 0.00 0.00 0.00 58 1011.3
20260510121653 69 31 0.0 0.0 0.00 0.00 0.00 58 1011.2
20260510121551 70 42 0.0 0.0 0.00 0.00 0.00 59 1011.4
20260510121038 70 36 0.0 0.0 0.00 0.00 0.00 57 1011.4
20260510120550 70 27 0.0 0.0 0.00 0.00 0.00 57 1011.4
20260510120158 70 36 0.0 0.0 0.00 0.00 0.00 60 1011.4
20260510120057 70 34 0.0 0.0 0.00 0.00 0.00 61 1011.5
20260510115546 70 32 0.0 0.0 0.00 0.00 0.00 58 1011.5
20260510115055 70 16 0.0 0.0 0.00 0.00 0.00 58 1011.5
20260510114650 70 19 0.0 0.0 0.00 0.00 0.00 57 1011.4
20260510114547 71 32 0.0 0.0 0.00 0.00 0.00 58 1011.5
20260510114053 71 26 0.0 0.0 0.00 0.00 0.00 57 1011.5
20260510113545 71 47 0.0 0.0 0.00 0.00 0.00 57 1011.4
20260510113053 71 10 0.0 0.0 0.00 0.00 0.00 57 1011.3
20260510113009 71 10 0.0 0.0 0.00 0.00 0.00 57 1011.2
20260510112543 71 355 0.0 0.0 0.00 0.00 0.00 56 1011.6
20260510112050 71 175 0.0 0.0 0.00 0.00 0.00 58 1011.6
20260510111602 71 50 0.0 0.0 0.00 0.00 0.00 57 1011.7
20260510111051 71 34 0.0 0.0 0.00 0.00 0.00 59 1011.8
20260510110601 71 41 0.0 0.0 0.00 0.00 0.00 58 1011.8
20260510110045 70 55 0.0 0.0 0.00 0.00 0.00 60 1011.7
20260510110007 70 55 0.0 0.0 0.00 0.00 0.00 60 1011.6
20260510105604 70 48 0.0 0.0 0.00 0.00 0.00 61 1011.9
20260510104509 69 131 0.0 0.0 0.00 0.00 0.00 60 1011.8
20260510103006 69 144 0.0 0.0 0.00 0.00 0.00 60 1012.1
20260510101504 69 40 0.0 0.0 0.00 0.00 0.00 62 1012.2
20260510100002 68 32 0.0 0.0 0.00 0.00 0.00 63 1012.3
20260510094607 68 43 0.0 0.0 0.00 0.00 0.00 63 1012.4
20260510093101 68 12 0.0 0.0 0.00 0.00 0.00 65 1012.4
20260510091554 67 41 0.0 0.0 0.00 0.00 0.00 67 1012.6
20260510090057 65 18 0.0 0.0 0.00 0.00 0.00 67 1012.6
20260510084607 65 29 0.0 0.0 0.00 0.00 0.00 70 1012.7
20260510083045 63 31 0.0 0.0 0.00 0.00 0.00 73 1012.7
20260510081549 61 25 0.0 0.0 0.00 0.00 0.00 77 1012.9
20260510080034 59 37 0.0 0.0 0.00 0.00 0.00 78 1012.9
20260510074531 58 24 0.0 0.0 0.00 0.00 0.00 81 1013.0
20260510073028 57 33 0.0 0.0 0.00 0.00 0.00 83 1013.1
20260510071531 56 28 0.0 0.0 0.00 0.00 0.00 84 1013.0
20260510070035 55 15 0.0 0.0 0.00 0.00 0.00 85 1013.0
20260510064527 54 22 0.0 0.0 0.00 0.00 0.00 87 1013.0
20260510063024 53 21 0.0 0.0 0.00 0.00 0.00 86 1012.9
20260510061523 53 21 0.0 0.0 0.00 0.00 0.00 87 1013.0
20260510060022 52 21 0.0 0.0 0.00 0.00 0.00 87 1013.0
20260510054522 52 21 0.0 0.0 0.00 0.00 0.00 87 1012.9
20260510053025 51 21 0.0 0.0 0.00 0.00 0.00 87 1012.9
20260510051521 50 21 0.0 0.0 0.00 0.00 0.00 87 1012.9
20260510050026 50 21 0.0 0.0 0.00 0.00 0.00 86 1012.9
20260510044529 50 21 0.0 0.0 0.00 0.00 0.00 86 1012.9
20260510043018 50 21 0.0 0.0 0.00 0.00 0.00 85 1013.1
20260510041518 50 21 0.0 0.0 0.00 0.00 0.00 85 1013.1
20260510040014 51 21 0.0 0.0 0.00 0.00 0.00 84 1013.1
20260510034511 51 21 0.0 0.0 0.00 0.00 0.00 83 1013.1
20260510033010 52 21 0.0 0.0 0.00 0.00 0.00 83 1013.1
20260510031508 52 21 0.0 0.0 0.00 0.00 0.00 82 1013.1
20260510030006 53 21 0.0 0.0 0.00 0.00 0.00 82 1013.3
20260510024505 53 21 0.0 0.0 0.00 0.00 0.00 81 1013.4
20260510023003 53 21 0.0 0.0 0.00 0.00 0.00 81 1013.3
20260510021506 53 21 0.0 0.0 0.00 0.00 0.00 81 1013.5
20260510020002 54 21 0.0 0.0 0.00 0.00 0.00 81 1013.6
20260510014601 54 21 0.0 0.0 0.00 0.00 0.00 81 1013.6
20260510013103 53 21 0.0 0.0 0.00 0.00 0.00 80 1013.6
20260510011602 53 21 0.0 0.0 0.00 0.00 0.00 81 1013.6
20260510010105 53 21 0.0 0.0 0.00 0.00 0.00 80 1013.6
20260510004556 53 21 0.0 0.0 0.00 0.00 0.00 80 1013.7
20260510003056 53 21 0.0 0.0 0.00 0.00 0.00 79 1013.8
20260510001554 53 21 0.0 0.0 0.00 0.00 0.00 78 1013.9
20260510000104 54 21 0.0 0.0 0.00 0.00 0.00 77 1014.0
20260509234557 54 21 0.0 0.0 0.00 0.00 0.00 76 1014.3
20260509233049 54 21 0.0 0.0 0.00 0.00 0.00 75 1014.3
20260509231547 55 21 0.0 0.0 0.00 0.00 0.00 75 1014.4
20260509230042 55 21 0.0 0.0 0.00 0.00 0.00 74 1014.5
20260509224540 56 21 0.0 0.0 0.00 0.00 0.00 73 1014.6
20260509223042 56 21 0.0 0.0 0.00 0.00 0.00 73 1014.6
20260509221540 57 21 0.0 0.0 0.00 0.00 0.00 72 1014.7
20260509220036 57 21 0.0 0.0 0.00 0.00 0.00 72 1014.8
20260509214535 58 21 0.0 0.0 0.00 0.00 0.00 71 1014.8
20260509213038 58 21 0.0 0.0 0.00 0.00 0.00 70 1014.8
20260509211533 58 21 0.0 0.0 0.00 0.00 0.00 70 1014.9
20260509210040 58 21 0.0 0.0 0.00 0.00 0.00 70 1015.0
20260509204539 59 22 0.0 0.0 0.00 0.00 0.00 70 1015.0
20260509203032 59 22 0.0 0.0 0.00 0.00 0.00 70 1015.1
20260509201532 59 22 0.0 0.0 0.00 0.00 0.00 69 1015.0
20260509200034 60 22 0.0 0.0 0.00 0.00 0.00 68 1015.0
20260509194534 60 22 0.0 0.0 0.00 0.00 0.00 68 1014.9
20260509193030 61 22 0.0 0.0 0.00 0.00 0.00 68 1014.9